[[{"header":{"parameterUnit":"m.s-1","parameterCategory":1,"la1":30.2991,"la2":30.254,"lo1":-89.0895,"lo2":-89.0444,"dy":0.0017,"dx":0.0017,"nx":28,"ny":28,"refTime":"2025-04-16T03:00:00:Z","depth":0,"parameterNumber":2,"parameterNumberName":"U-component_of_WINDS"},"data":[0,0,0,0,0,0,0,0,0,0,0,0,0,0,0,0,0,0,0,0,0,0,0,0,0,0,0,0,0,0,0,0,0,0,0,0,0,0,0,0,0,0,0,0,0,0,0,0,0,0,0,0,0,0,0,0,0,0,0.1591,0.1592,0,0.1697,0.1698,0.17,0.177,0.1771,0.1771,0.1771,0.188,0.1882,0.1884,0,0,0,0,0,0,0,0,0,0,0,0,0,0.1447,0.1449,0.1591,0.1592,0.1593,0.1697,0.1698,0.17,0.177,0.1771,0.1771,0.1772,0.1879,0.1882,0.1885,0,0,0,0,0,0,0,0,0,0,0,0,0,0.1527,0.145,0.159,0.1641,0.1646,0.1697,0.1699,0.17,0.177,0.1771,0.1771,0.1772,0.1878,0.1881,0.1885,0.1893,0,0,0.1896,0.1898,0,0,0,0,0,0,0,0,0.1522,0.1532,0.1632,0.1637,0.1644,0.1721,0.1688,0.1765,0.177,0.1723,0.1771,0.1772,0.1826,0.1834,0.1853,0.1898,0.1903,0.1896,0.1899,0.19,0.1901,0,0,0,0,0,0,0,0.1517,0.1528,0.1633,0.1633,0.1641,0.1658,0.167,0.1702,0.1769,0.1727,0.1732,0.1744,0.183,0.1849,0.1856,0.1905,0.1896,0.19,0.1902,0.1903,0.1962,0.1961,0,0,0,0,0,0,0.1503,0.1523,0.1629,0.1636,0.1584,0.166,0.1673,0.1696,0.1769,0.1781,0.1743,0.1747,0.1842,0.1851,0.186,0.1873,0.19,0.1904,0.1906,0.1962,0.1962,0.1961,0,0,0,0,0,0,0.15,0.1512,0.1625,0.1581,0.1597,0.1661,0.1686,0.1697,0.1717,0.1782,0.1794,0.1751,0.1843,0.1855,0.1884,0.1878,0.1905,0.1909,0.1963,0.1962,0.1961,0.1901,0,0,0,0,0,0,0.1495,0.151,0.1515,0.1581,0.1599,0.1648,0.1686,0.1699,0.1723,0.1729,0.1792,0.1803,0.1845,0.1878,0.1888,0.1884,0.1912,0.1964,0.1963,0.1962,0.1904,0.1898,0.1893,0,0,0,0,0,0.149,0.1494,0.1514,0.1527,0.1605,0.1648,0.1658,0.1706,0.1722,0.1726,0.1768,0.1801,0.1877,0.1881,0.1892,0.1889,0.1964,0.1963,0.1962,0.1906,0.1899,0.1894,0,0,0,0,0,0,0.1425,0.1503,0.1527,0.1552,0.1593,0.1659,0.1666,0.1697,0.1734,0.1738,0.1796,0.181,0.1833,0.1864,0.1867,0.19,0.1925,0.1926,0.1879,0.1873,0.1868,0.1859,0.1915,0,0,0,0,0,0.1414,0.1442,0.1509,0.1524,0.1543,0.1601,0.1621,0.1655,0.1699,0.1717,0.1761,0.1802,0.1835,0.1856,0.1891,0.1909,0.1923,0.1913,0.1907,0.1903,0.1902,0.1913,0.1909,0.1956,0.1956,0.1956,0,0,0.139,0.1436,0.1451,0.1512,0.1547,0.1575,0.1615,0.1643,0.1663,0.1721,0.1751,0.1785,0.1835,0.1859,0.1872,0.1885,0.1892,0.1901,0.1897,0.1899,0.1911,0.1907,0.1903,0.1955,0.1955,0.1955,0,0,0.1361,0.1399,0.1416,0.1451,0.1504,0.1542,0.1546,0.1608,0.1633,0.1664,0.1708,0.1733,0.179,0.1824,0.1848,0.1831,0.1862,0.1841,0.1813,0.1823,0.1819,0.1816,0.1809,0.1806,0.184,0.184,0.184,0,0.1325,0.1369,0.1421,0.1445,0.1471,0.1524,0.1541,0.1572,0.1634,0.1649,0.1664,0.1736,0.1774,0.1806,0.1801,0.182,0.1825,0.1833,0.1816,0.1813,0.1811,0.1805,0.1802,0.1837,0.1838,0.1838,0.1838,0,0.1321,0.135,0.1357,0.1415,0.1442,0.1462,0.1517,0.1537,0.1568,0.1605,0.1636,0.1683,0.1727,0.1738,0.1769,0.1774,0.1781,0.1805,0.183,0.1803,0.1798,0.1796,0.1833,0.1834,0.1835,0.1836,0,0,0.1254,0.134,0.1342,0.1368,0.1431,0.1454,0.1477,0.152,0.1536,0.1577,0.1596,0.1643,0.1666,0.1693,0.1728,0.1737,0.172,0.1761,0.1763,0.175,0.1727,0.1708,0.1704,0.1741,0.1741,0.1741,0.1723,0,0.1233,0.1277,0.1324,0.1351,0.1378,0.143,0.1449,0.1489,0.1524,0.1552,0.1591,0.1622,0.165,0.1667,0.1679,0.1719,0.1716,0.1722,0.1759,0.176,0.1744,0.1702,0.1682,0.1662,0.1721,0.1721,0.1721,0,0.1215,0.1253,0.1282,0.1342,0.1355,0.1372,0.1415,0.1441,0.1488,0.1512,0.1543,0.158,0.1606,0.1629,0.1665,0.1668,0.1686,0.1709,0.1709,0.1714,0.1738,0.1704,0.1657,0.1653,0.1718,0.1719,0.1719,0,0.1161,0.122,0.1245,0.1266,0.1336,0.1347,0.1376,0.1423,0.1446,0.1484,0.15,0.154,0.1562,0.1592,0.1639,0.1651,0.1669,0.1697,0.169,0.1688,0.169,0.1689,0.1644,0.1704,0.1704,0.1704,0.1704,0,0.1133,0.1148,0.1222,0.1237,0.1256,0.131,0.1327,0.1361,0.1402,0.1425,0.1472,0.1492,0.1554,0.1581,0.1618,0.1641,0.1651,0.1671,0.168,0.1666,0.1663,0.1678,0.168,0.1703,0.1703,0.1704,0.1704,0,0.1075,0.1125,0.1156,0.1219,0.1236,0.1247,0.1301,0.1318,0.1355,0.1383,0.1392,0.1451,0.1485,0.1536,0.1585,0.161,0.1627,0.1644,0.1612,0.1617,0.1607,0.1607,0.1569,0.1566,0.1628,0.1627,0.1627,0,0.1053,0.1067,0.1132,0.115,0.1178,0.1207,0.1231,0.1285,0.1307,0.1361,0.137,0.1408,0.1441,0.1493,0.154,0.1578,0.1595,0.1579,0.1601,0.1586,0.1593,0.1591,0.1592,0.1573,0.1572,0.1572,0.1571,0,0.1008,0.1032,0.1064,0.1105,0.1132,0.1166,0.1203,0.1215,0.1277,0.13,0.1335,0.1361,0.1411,0.1448,0.1492,0.1523,0.1556,0.1564,0.1564,0.1549,0.1529,0.1538,0.1596,0.1564,0.1565,0.1565,0.1566,0.1566,0.0967,0.0981,0.1029,0.1063,0.1096,0.1129,0.1148,0.1187,0.1218,0.1263,0.1293,0.1327,0.1373,0.1435,0.1464,0.1491,0.1505,0.1506,0.1506,0.1505,0.1499,0.1526,0.1499,0.1499,0.15,0.15,0.15,0,0.0923,0.0957,0.0988,0.1037,0.1064,0.1094,0.1137,0.1157,0.1186,0.1225,0.1257,0.1297,0.1333,0.1383,0.1422,0.1434,0.145,0.1442,0.1441,0.1447,0.1484,0.148,0.1428,0.1428,0.1428,0.1428,0.1428,0.1428,0.0904,0.0928,0.0958,0.0999,0.1032,0.1065,0.1087,0.1117,0.1149,0.1192,0.1222,0.1254,0.1298,0.1341,0.1375,0.1389,0.14,0.1387,0.1405,0.1438,0.1445,0.1451,0.1447,0.1389,0.1389,0.1366,0.1366,0.1365]},{"header":{"parameterUnit":"m.s-1","parameterCategory":1,"la1":30.2991,"la2":30.254,"lo1":-89.0895,"lo2":-89.0444,"dy":0.0017,"dx":0.0017,"nx":28,"ny":28,"refTime":"2025-04-16T03:00:00:Z","depth":0,"parameterNumber":3,"parameterNumberName":"V-component_of_WINDS"},"data":[0,0,0,0,0,0,0,0,0,0,0,0,0,0,0,0,0,0,0,0,0,0,0,0,0,0,0,0,0,0,0,0,0,0,0,0,0,0,0,0,0,0,0,0,0,0,0,0,0,0,0,0,0,0,0,0,0,0,3.1871,3.1871,0,3.186,3.186,3.186,3.1801,3.1799,3.1798,3.1797,3.1785,3.1786,3.1787,0,0,0,0,0,0,0,0,0,0,0,0,0,3.1839,3.184,3.1871,3.1871,3.1871,3.186,3.186,3.186,3.1801,3.1799,3.1798,3.1796,3.1785,3.1786,3.1787,0,0,0,0,0,0,0,0,0,0,0,0,0,3.1843,3.1841,3.1871,3.184,3.1837,3.186,3.186,3.186,3.1801,3.1799,3.1797,3.1795,3.1785,3.1786,3.1787,3.1839,0,0,3.1792,3.1793,0,0,0,0,0,0,0,0,3.1843,3.1845,3.1845,3.1842,3.1839,3.183,3.1844,3.1853,3.1802,3.1815,3.1797,3.1794,3.1802,3.1802,3.1804,3.1839,3.1838,3.1792,3.1793,3.1794,3.1794,0,0,0,0,0,0,0,3.1843,3.1845,3.1866,3.1845,3.1841,3.1826,3.1824,3.1846,3.182,3.1814,3.1809,3.1809,3.18,3.1803,3.1804,3.1838,3.1792,3.1794,3.1794,3.1795,3.1911,3.1913,0,0,0,0,0,0,3.1847,3.1845,3.1867,3.1866,3.1836,3.1829,3.1827,3.1835,3.182,3.1816,3.1811,3.1806,3.1801,3.1802,3.1803,3.186,3.1794,3.1795,3.1796,3.1909,3.1912,3.1914,0,0,0,0,0,0,3.1847,3.185,3.1867,3.1854,3.1855,3.1831,3.1841,3.1836,3.1839,3.1818,3.1813,3.1819,3.18,3.1801,3.183,3.1859,3.1796,3.1797,3.1907,3.191,3.1913,3.1976,0,0,0,0,0,0,3.1846,3.185,3.187,3.1855,3.1856,3.1895,3.1843,3.1837,3.1841,3.1835,3.1824,3.182,3.1798,3.1828,3.1831,3.186,3.1798,3.1904,3.1908,3.1912,3.1971,3.1981,3.199,0,0,0,0,0,3.1845,3.1888,3.1871,3.1874,3.1881,3.1897,3.1897,3.1872,3.1844,3.1863,3.1849,3.182,3.1856,3.1831,3.1835,3.1864,3.1902,3.1907,3.1912,3.1967,3.1979,3.199,0,0,0,0,0,0,3.1907,3.1886,3.1866,3.1906,3.1904,3.1887,3.191,3.1886,3.1891,3.1885,3.1853,3.185,3.1884,3.1877,3.1851,3.1912,3.1874,3.1879,3.1915,3.1926,3.1935,3.1935,3.18,0,0,0,0,0,3.1926,3.1941,3.1922,3.1959,3.1958,3.1935,3.1941,3.1921,3.1917,3.1916,3.1904,3.1901,3.1911,3.1919,3.1927,3.1971,3.1966,3.1993,3.2002,3.2009,3.2014,3.2034,3.2045,3.193,3.193,3.193,0,0,3.1964,3.1954,3.1966,3.1971,3.1966,3.1982,3.1934,3.1953,3.1964,3.1919,3.1945,3.1936,3.1931,3.1967,3.1982,3.1962,3.2045,3.2016,3.2022,3.2022,3.204,3.2051,3.2061,3.1933,3.1933,3.1932,0,0,3.204,3.2036,3.2064,3.2061,3.2055,3.2039,3.2046,3.2032,3.2025,3.2051,3.2016,3.2029,3.2048,3.2044,3.2045,3.2119,3.2092,3.2123,3.217,3.219,3.2199,3.2207,3.2231,3.224,3.2128,3.2129,3.2129,0,3.2088,3.211,3.2083,3.2103,3.2106,3.2065,3.2094,3.2092,3.2089,3.2091,3.2069,3.209,3.2084,3.2117,3.2135,3.2139,3.2144,3.2123,3.22,3.2208,3.2215,3.2237,3.2247,3.2132,3.2132,3.2131,3.2131,0,3.2168,3.2184,3.2209,3.2206,3.2211,3.2236,3.2211,3.222,3.22,3.2186,3.2212,3.2203,3.2207,3.2214,3.2195,3.2245,3.2232,3.2206,3.2166,3.223,3.225,3.2259,3.2137,3.2136,3.2135,3.2134,0,0,3.2283,3.2264,3.2273,3.227,3.226,3.2272,3.2294,3.2299,3.2306,3.2305,3.2322,3.2338,3.2313,3.2314,3.2295,3.2313,3.2369,3.2284,3.2283,3.2298,3.242,3.2438,3.2449,3.2352,3.2353,3.2354,3.242,0,3.2354,3.2391,3.2366,3.2406,3.242,3.2381,3.24,3.2396,3.2383,3.2392,3.2378,3.2389,3.2357,3.2357,3.2373,3.2359,3.2393,3.2354,3.2365,3.2366,3.2365,3.246,3.2479,3.2542,3.2428,3.2429,3.243,0,3.2442,3.2444,3.2486,3.2471,3.2476,3.2493,3.2494,3.2504,3.2498,3.2487,3.2488,3.2463,3.2483,3.2445,3.2471,3.2445,3.2449,3.2442,3.2444,3.2442,3.24,3.2458,3.2561,3.2569,3.2443,3.2442,3.2441,0,3.2519,3.2532,3.2558,3.2557,3.2542,3.2554,3.2548,3.254,3.2544,3.2545,3.2546,3.255,3.2552,3.2555,3.2531,3.2506,3.2559,3.252,3.2549,3.255,3.2561,3.256,3.2663,3.2567,3.2567,3.2567,3.2567,0,3.2599,3.2626,3.2592,3.2608,3.2635,3.2607,3.2635,3.2625,3.2617,3.263,3.2597,3.261,3.2579,3.2588,3.257,3.2592,3.2594,3.2585,3.2579,3.2586,3.2587,3.2586,3.2581,3.2569,3.2569,3.2568,3.2568,0,3.2689,3.2667,3.2692,3.2675,3.2671,3.2692,3.2677,3.269,3.2676,3.2692,3.2694,3.267,3.2679,3.2656,3.2662,3.2649,3.2682,3.267,3.2683,3.2679,3.2709,3.2705,3.2813,3.2824,3.2724,3.2725,3.2726,0,3.2741,3.276,3.2744,3.275,3.2745,3.2755,3.2758,3.2731,3.2735,3.2728,3.2742,3.2748,3.2751,3.2767,3.275,3.2753,3.274,3.2778,3.2741,3.2747,3.2738,3.2736,3.2737,3.2785,3.2786,3.2787,3.2788,0,3.2834,3.2822,3.2828,3.2829,3.2834,3.2834,3.2832,3.2839,3.2809,3.2815,3.2823,3.2826,3.2831,3.2836,3.2836,3.2829,3.2803,3.28,3.2806,3.2813,3.2819,3.2813,3.2702,3.2797,3.2796,3.2796,3.2795,3.2795,3.2904,3.2918,3.2909,3.2916,3.2911,3.291,3.292,3.2907,3.2913,3.2914,3.2898,3.2909,3.2901,3.2897,3.2893,3.2901,3.2884,3.2894,3.2896,3.2898,3.2902,3.2819,3.2901,3.2901,3.2901,3.29,3.29,0,3.2994,3.2986,3.2992,3.299,3.2995,3.297,3.2966,3.2972,3.2982,3.2977,3.298,3.2988,3.2993,3.2977,3.2979,3.2988,3.2976,3.299,3.2987,3.2986,3.2918,3.2911,3.2999,3.2999,3.2999,3.2999,3.2999,3.2999,3.3041,3.3063,3.3049,3.3068,3.306,3.307,3.3069,3.3067,3.3062,3.3073,3.3077,3.3066,3.3056,3.3057,3.306,3.3055,3.3056,3.3073,3.3064,3.3001,3.2991,3.2982,3.2975,3.3074,3.3074,3.313,3.3131,3.3131]}]]